Regional Weather Roundup
Issued by NWS

Home | Current Version | Previous Version | Graphics & Text | Print | Product List | Glossary On
Versions: 1 2 3 4 5 6 7 8 9 10 11 12 13 14 15 16 17 18 19 20 21 22 23 24 25 26 27 28 29 30 31 32 33 34 35 36 37 38 39 40 41 42 43 44 45 46 47 48 49 50
000
ASUS43 KMKX 291100
RWRWI

WISCONSIN REGIONAL WEATHER ROUNDUP
NATIONAL WEATHER SERVICE MILWAUKEE/SULLIVAN WI
600 AM CDT TUE JUL 29 2014

NOTE: "FAIR" INDICATES FEW OR NO CLOUDS BELOW 12,000 FEET WITH NO
SIGNIFICANT WEATHER AND/OR OBSTRUCTIONS TO VISIBILITY.

WIZ001-002-006>008-014>016-023>028-291200-
NORTHWEST WISCONSIN

CITY           SKY/WX    TMP DP  RH WIND       PRES   REMARKS
SUPERIOR ARPT  MOCLDY    57  55  94 W3        30.07F
ASHLAND        CLOUDY    57  54  89 SW5       30.06S
HAYWARD        CLOUDY    50  49  96 SW5       30.09F
SIREN          CLEAR     52  51  96 CALM        N/A
RICE LAKE      NOT AVBL
LADYSMITH      CLEAR     56  53  91 NW5       30.10R
EAU CLAIRE     NOT AVBL
MENOMONIE      SUNNY     58  55  91 W7        30.09S
NEW RICHMOND   CLEAR     53  53  97 CALM      30.12S
OSCEOLA        FOG       53  53 100 CALM      30.14S VSB 1/4
$$

WIZ003>005-009-010-017-018-291200-
NORTH CENTRAL WISCONSIN

CITY           SKY/WX    TMP DP  RH WIND       PRES   REMARKS
WOODRUFF       PTCLDY    55  51  89 NW5       30.05S
RHINELANDER    PTCLDY    51  51 100 W6        30.05S
EAGLE RIVER    FOG       48  48 100 CALM      30.04R VSB<1/4
LAND O LAKES   CLEAR     48  48 100 CALM      30.04S
PHILLIPS       PTCLDY    52  52 100 CALM      30.06S
TOMAHAWK       FOG       46  45  97 CALM      30.06S VSB 1/4
MEDFORD        PTCLDY    52  52  99 NW3       30.06S
MERRILL        MOCLDY    49  49 100 CALM      30.05S
$$

WIZ029-030-035-036-043>047-291200-
CENTRAL WISCONSIN

CITY           SKY/WX    TMP DP  RH WIND       PRES   REMARKS
WAUSAU         MOCLDY    56  54  93 NW3       30.04S
MOSINEE        PTCLDY    54  54 100 N5        30.06R
MARSHFIELD     MOCLDY    56  53  90 NW8       30.06R
STEVENS POINT  PTCLDY    52  51  94 CALM      30.05S
WAUPACA        PTCLDY    59  55  85 CALM      30.03R
WAUTOMA        NOT AVBL
WISC RAPIDS    PTCLDY    53  52  96 W3        30.06S
CAMP DOUGLAS   NOT AVBL
$$

WIZ011>013-019>022-031-037>040-048>050-291200-
NORTHEAST WISCONSIN

CITY           SKY/WX    TMP DP  RH WIND       PRES   REMARKS
ANTIGO         PTCLDY    52  51  98 NW6       30.04F
STURGEON BAY   PTCLDY    57  54  88 CALM      29.99S
GREEN BAY      PTCLDY    57  55  93 NW9       30.01R
MANITOWOC      NOT AVBL
APPLETON       MOCLDY    55  54  94 NW8       30.02R
CLINTONVILLE   MOCLDY    55  52  88 NW5       30.01F
OSHKOSH        MOCLDY    58  54  86 W6        30.01S
$$

WIZ032>034-041-042-053>061-291200-
SOUTHWEST WISCONSIN

CITY           SKY/WX    TMP DP  RH WIND       PRES   REMARKS
LA CROSSE      CLEAR     57  54  89 CALM      30.08S
SPARTA         CLEAR     47  46  96 CALM      30.08S
VIROQUA        FAIR      54  54 100 W3        30.09S
BOSCOBEL       CLEAR     53  51  93 SW5       30.09S
PRAIRIE DU CHI CLEAR     53  51  91 CALM      30.09S
PLATTEVILLE    FAIR      53  52  95 W5        30.09S
$$

WIZ056-057-062-063-064-067-068-291200-
SOUTH CENTRAL WISCONSIN

CITY           SKY/WX    TMP DP  RH WIND       PRES   REMARKS
BARABOO/DELLS  CLEAR     56  50  80 W3        30.06S
LONE ROCK      NOT AVBL
WATERTOWN      PTCLDY    55  53  92 CALM      30.03S
MADISON        PTCLDY    59  52  77 W5        30.05S
MIDDLETON      FAIR      58  52  82 W5        30.06R
MONROE         CLEAR     57  52  82 W10       30.07R
JANESVILLE     PTCLDY    57  52  82 W3        30.04S
$$

WIZ051-052-058>065-066-070>072-291200-
SOUTHEAST WISCONSIN

CITY           SKY/WX    TMP DP  RH WIND       PRES   REMARKS
MILWAUKEE      PTCLDY    62  53  72 NW6       30.01S
WAUKESHA       PTCLDY    57  52  82 W7        30.03S
MILWAUKEE/TIMM CLEAR     57  52  82 W5        30.02F
RACINE         MOCLDY    61  54  77 W6        30.03S
BURLINGTON     MOCLDY    54  52  94 SW3       30.03S
KENOSHA        CLOUDY    58  54  86 W7        30.03R
FOND DU LAC    CLEAR     55  52  89 CALM      30.02S
SHEBOYGAN      CLEAR     57  54  89 NW7       30.00S
WEST BEND      CLEAR     59  52  77 W7        30.01S
JUNEAU         CLEAR     57  52  85 CALM      30.04S
$$

LSZ147-162-291200-
LAKE SUPERIOR

STATION/POSITION TIME  TEMP    WIND        PRES    WAVE
                       AIR SEA DIR/SP/G            HT/PER
                 (UTC) (F)     (DEG/KT/KT) (MB)    (FT/S)
W MID LAKE BUOY  0950   51 43  270/  8/ 10 1016.3R   1/ 3
PORT WING        1000   58     200/  4/  5 1017.9S
SAXON HARBOR     1000          190/  4/  6 1017.6R
$$

LMZ867-665-643>646-291200-
LAKE MICHIGAN

STATION/POSITION TIME  TEMP    WIND        PRES    WAVE
                       AIR SEA DIR/SP/G            HT/PER
                 (UTC) (F)     (DEG/KT/KT) (MB)    (FT/S)
N MID LAKE BUOY  0950   56 52  290/  8/  8 1013.6S   1/ 3
NORTHPORT PIER   1000   61     320/  9/ 12 1014.6R
SISTER BAY       1040   62     350/ 13/ 16   N/A
ALGOMA LAKESHORE 1006          340/  6/  9   N/A
KEWAUNEE LAKESHO 1000   58     300/  5/  6 1015.6F
SHEBOYGAN LAKESH 1000   64     290/ 10/ 12 1015.7S
PORT WASHINGTON  1000   62     290/  5/  9 1016.6R
ATWATER BUOY     1000   63     270/ 12     1017.1R
MILWAUKEE LAKESH 1000   63     290/  9/ 13   N/A
S MID LAKE BUOY  0950   61 60  230/ 10/ 12 1016.0F   1/ 6
KENOSHA   LAKESH 0900   61     260/  9/ 11 1016.3F
$$

TC  - TEMPERATURE IN CELSIUS
VSB - VISIBILITY IN STATUTE MILES
WCI - WIND CHILL INDEX
HX  - HEAT INDEX



USA.gov is the U.S. government's official web portal to all federal, state and local government web resources and services.